Regional Weather Roundup
Issued by NWS

Home | Current Version | Previous Version | Graphics & Text | Print | Product List | Glossary On
Versions: 1 2 3 4 5 6 7 8 9 10 11 12 13 14 15 16 17 18 19 20 21 22 23 24 25 26 27 28 29 30 31 32 33 34 35 36 37 38 39 40 41 42 43 44 45 46 47 48 49 50
988
ASUS44 KLIX 241510
RWRLA
LOUISIANA WEATHER ROUNDUP
NATIONAL WEATHER SERVICE NEW ORLEANS LA
900 AM CST SAT JAN 24 2015

NOTE: "FAIR" INDICATES FEW OR NO CLOUDS BELOW 12,000 FEET WITH NO
      SIGNIFICANT WEATHER AND/OR OBSTRUCTIONS TO VISIBILITY.
      SKY/WX - SKY CONDITION AND SIGNIFICANT WEATHER.
      TMP - AIR TEMPERATURE.    DP   - DEWPOINT TEMPERATURE.
      RH  - RELATIVE HUMIDITY.  PRES - PRESSURE.
      HX  - HEAT INDEX.         WCI  - WIND CHILL INDEX.

*  THESE STATIONS ARE NOT NWS OR FAA STATIONS AND ARE NOT UNDER
   NWS QUALITY CONTROL.

LAZ040-048-061>063-065-066-069-241600-
SOUTHEAST LOUISIANA

CITY           SKY/WX    TMP DP  RH WIND       PRES   REMARKS
N.O. AUDUBON     N/A     44  40  86 MISG        N/A
N.O. INTL ARPT MOSUNNY   44  36  73 NW13      30.20S
N.O. LAKEFRONT MOSUNNY   46  39  76 NW22      30.20R
N.O. DOWNTOWN* FAIR      43  36  75 W8        30.20S
SLIDELL        PTSUNNY   39  35  86 NW8       30.19R WCI  33
BATON ROUGE    SUNNY     41  35  79 W9        30.21R
BOOTHVILLE     SUNNY     44  38  79 NW10      30.20R
BELLE CHASSE   MOSUNNY   44  35  70 NW8       30.19S
BOGALUSA*        N/A     40  35  81 W7        30.20R
GALLIANO*      SUNNY     46  39  77 MISG      30.21R
NEW ROADS*     FAIR      38  34  84 W5        30.22R WCI  35
GONZALES*      FAIR      42  38  87 CALM      30.22R
HAMMOND*       MOSUNNY   41  36  81 W5        30.22R
HOUMA*         SUNNY     45  37  76 NW7       30.21
PORT FOURCHON* SUNNY     46  37  71 NW16      30.24R

$$

LAZ041-044-053-054-241600-
SOUTHWEST LOUISIANA

CITY           SKY/WX    TMP DP  RH WIND       PRES   REMARKS
LAKE CHARLES   SUNNY     42  37  82 NW5       30.23S
LAFAYETTE      SUNNY     42  36  79 W9        30.22S
PATTERSON      SUNNY     43  34  70 N9        30.23R
SALT POINT       N/A     46  35  65 NW7       30.22R
NEW IBERIA     SUNNY     44  37  76 NW9       30.23S
CHENAULT AIRPK SUNNY     43  36  75 W6        30.24

$$

LAZ027-028-241600-
CENTRAL LOUISIANA

CITY           SKY/WX    TMP DP  RH WIND       PRES   REMARKS
FORT POLK      SUNNY     39  36  89 SW5       30.20R
ALEXANDRIA INT SUNNY     38  35  89 CALM      30.18R
ALEXANDRIA     SUNNY     39  36  89 W8        30.18R WCI  33

$$

LAZ001-002-241600-
NORTHWEST LOUISIANA

CITY           SKY/WX    TMP DP  RH WIND       PRES   REMARKS
SHREVEPORT     MOSUNNY   42  34  73 W8        30.15S
BARKSDALE AFB  SUNNY     37  35  90 S2        30.16S
DTN SHREVEPORT SUNNY     39  32  76 W8        30.16S WCI  33

$$

LAZ014-016-241600-
NORTHEAST LOUISIANA

CITY           SKY/WX    TMP DP  RH WIND       PRES   REMARKS
MONROE         SUNNY     39  34  82 SW6       30.16S WCI  35
TALLULAH       SUNNY     37  33  85 SW5       30.17R WCI  33

$$




USA.gov is the U.S. government's official web portal to all federal, state and local government web resources and services.